Location: B�di�
(14.6834°N, 3.1047°W)
Time: 17:37:23
(UTC+00:00)

CZ-2D R/B - Pass Details

Date: 24 January 2020
Orbit: 522 x 538 km, 97.4° (Epoch: 22 February)

Event Time Altitude Azimuth Distance (km) Brightness Sun altitude
Rises 18:39:13 0° 146° (SE) 2,643 6.6 -8.2°
Reaches altitude 10° 18:41:34 10° 133° (SE) 1,758 5.6 -8.7°
Maximum altitude 18:44:43 25° 76° (ENE) 1,078 4.2 -9.4°
Drops below altitude 10° 18:47:53 10° 20° (NNE) 1,766 5.5 -10.2°
Sets 18:50:15 0° 7° (N) 2,658 6.6 -10.7°
